Leesburg, FL

11:09 PM EDT on July 29, 2016 (GMT -0400)
Leesburg Regional

Weather History for KLEE - August, 2014

Change the Weather History Date:

Sunday, August 24, 2014

  Actual Average Record
Temperature  
Mean Temperature 88 °F -  
Max Temperature 98 °F 90 °F 98 °F (2014)
Min Temperature 77 °F 72 °F 68 °F (1973)
Cooling Degree Days 22    
Growing Degree Days 38 (Base 50)    
Moisture  
Dew Point 74 °F    
Average Humidity 70    
Maximum Humidity 90    
Minimum Humidity 39    
Precipitation  
Precipitation 0.13 in - - ()
Sea Level Pressure  
Sea Level Pressure 29.84 in    
Wind  
Wind Speed 6 mph (North)    
Max Wind Speed 20 mph    
Max Gust Speed 26 mph    
Visibility 10 miles    
Events Rain , Thunderstorm    
Averages and records for this station are not official NWS values.
T = Trace of Precipitation, MM = Missing Value Source: NWS Daily Summary

Daily Weather History Graph

Daily Weather History Graph

Search for Another Location

Airport or City:

Trip Planner

Search our weather history database for the weather conditions in past years. The results will help you decide how hot, cold, wet, or windy it might be!

Date:

Astronomy

Aug. 24, 2014 Rise Set
Actual Time 7:01 AM EDT 7:57 PM EDT
Civil Twilight 6:36 AM EDT 8:21 PM EDT
Nautical Twilight 6:07 AM EDT 8:50 PM EDT
Astronomical Twilight 5:38 AM EDT 9:20 PM EDT
Moon 6:10 AM EDT (8/24) 7:17 PM EDT (8/24)
Length of Visible Light 13h 45m
Length of Day
12h 56m
Waning Crescent, 1% of the Moon is Illuminated
Aug 24
Waning Crescent
Aug 25
New
Sep 2
First Quarter
Sep 8
Full
Sep 15
Last Quarter

Hourly Weather History & Observations

Time (EDT) Temp. Heat Index Dew Point Humidity Pressure Visibility Wind Dir Wind Speed Gust Speed Precip Events Conditions
12:53 AM 80.1 °F 84.2 °F 73.0 °F 79% 29.90 in 10.0 mi West 3.5 mph - N/A   Partly Cloudy
1:53 AM 78.1 °F - 73.0 °F 84% 29.88 in 10.0 mi WNW 3.5 mph - N/A   Partly Cloudy
2:53 AM 78.1 °F - 73.0 °F 84% 29.88 in 10.0 mi NW 3.5 mph - N/A   Partly Cloudy
3:53 AM 78.1 °F - 72.0 °F 81% 29.86 in 10.0 mi WNW 3.5 mph - N/A   Clear
4:53 AM 77.0 °F - 73.0 °F 88% 29.85 in 10.0 mi Calm Calm - N/A   Clear
5:53 AM 77.0 °F - 73.0 °F 88% 29.85 in 10.0 mi WSW 5.8 mph - N/A   Clear
6:53 AM 77.0 °F - 73.0 °F 88% 29.86 in 10.0 mi WNW 4.6 mph - N/A   Clear
7:53 AM 78.1 °F - 73.9 °F 87% 29.86 in 10.0 mi SW 3.5 mph - N/A   Clear
8:53 AM 81.0 °F 86.2 °F 73.9 °F 79% 29.87 in 10.0 mi Calm Calm - N/A   Clear
9:53 AM 84.9 °F 93.3 °F 75.0 °F 72% 29.87 in 10.0 mi West 3.5 mph - N/A   Clear
10:53 AM 88.0 °F 97.5 °F 75.0 °F 65% 29.88 in 10.0 mi Variable 3.5 mph - N/A   Clear
11:53 AM 91.0 °F 102.9 °F 75.9 °F 61% 29.87 in 10.0 mi West 5.8 mph - N/A   Clear
12:53 PM 93.9 °F 105.4 °F 75.0 °F 54% 29.86 in 10.0 mi West 4.6 mph - N/A   Clear
1:53 PM 97.0 °F 107.7 °F 73.9 °F 47% 29.83 in 10.0 mi North - - N/A   Partly Cloudy
2:53 PM 95.0 °F 106.7 °F 75.0 °F 52% 29.81 in 10.0 mi SE 4.6 mph - N/A   Mostly Cloudy
3:43 PM 98.1 °F 105.0 °F 70.0 °F 40% 29.80 in 10.0 mi NE 8.1 mph - 0.00 in Thunderstorm Partly Cloudy
3:53 PM 98.1 °F 106.5 °F 71.1 °F 42% 29.79 in 10.0 mi NE 11.5 mph 17.3 mph 0.00 in Thunderstorm Clear
4:07 PM 98.1 °F 106.5 °F 71.1 °F 42% 29.79 in 10.0 mi NNE 13.8 mph 19.6 mph N/A   Clear
4:24 PM 97.0 °F 102.2 °F 68.0 °F 39% 29.80 in 10.0 mi North 9.2 mph - N/A Thunderstorm Clear
4:45 PM 93.9 °F 100.8 °F 71.1 °F 47% 29.81 in 10.0 mi North 10.4 mph - N/A   Partly Cloudy
4:53 PM 93.0 °F 100.1 °F 71.1 °F 49% 29.80 in 10.0 mi NE 13.8 mph - N/A   Scattered Clouds
5:53 PM 86.0 °F 95.1 °F 75.0 °F 70% 29.82 in 10.0 mi NNW 19.6 mph 26.5 mph N/A   Mostly Cloudy
6:07 PM 84.0 °F 91.2 °F 73.9 °F 72% 29.81 in 10.0 mi NNW 13.8 mph - N/A   Mostly Cloudy
6:15 PM 84.9 °F 91.4 °F 73.0 °F 67% 29.81 in 10.0 mi North 10.4 mph - N/A Thunderstorm Mostly Cloudy
6:30 PM 84.9 °F 92.1 °F 73.9 °F 69% 29.81 in 10.0 mi NE 8.1 mph - N/A   Scattered Clouds
6:53 PM 84.9 °F 92.1 °F 73.9 °F 69% 29.83 in 10.0 mi North 8.1 mph - N/A   Scattered Clouds
7:53 PM 82.0 °F 88.6 °F 75.0 °F 79% 29.84 in 10.0 mi North 6.9 mph - N/A   Partly Cloudy
8:27 PM 79.0 °F - 73.9 °F 84% 29.85 in 2.0 mi NNE 12.7 mph 23.0 mph 0.13 in Rain Rain
8:35 PM 79.0 °F - 73.9 °F 84% 29.84 in 8.0 mi NNE 11.5 mph - 0.13 in Rain Light Rain
8:53 PM 79.0 °F - 75.0 °F 88% 29.85 in 10.0 mi NNE 6.9 mph - 0.13 in   Scattered Clouds
10:53 PM 80.1 °F 85.8 °F 77.0 °F 90% 29.86 in 10.0 mi NNE 5.8 mph - N/A   Clear
11:16 PM 80.1 °F 85.8 °F 77.0 °F 90% 29.87 in 10.0 mi NE 6.9 mph - N/A   Mostly Cloudy
11:53 PM 80.1 °F 85.8 °F 77.0 °F 90% 29.86 in 10.0 mi NNE 5.8 mph - N/A   Mostly Cloudy